{"data":{"norad_id":59757,"intl_designator":"2024-091E","name":"STARLINK-11114 [DTC]","alt_names":[],"object_type":"PAYLOAD","status":"ACTIVE","operator":null,"country":"US","launch_date":"2024-05-14","launch_site_code":"AFWTR","launch_vehicle":null,"mission":null,"orbit_class":"UNKNOWN","rcs_meters":null,"size_class":null,"mass_kg":null,"dimensions":null,"purposes":["comms"],"wikipedia_slug":null,"has_3d_model":false,"image_url":null,"decayed_at":null,"tle_current":{"epoch":"2026-05-25T02:29:34.170144Z","epoch_age_seconds":66181,"freshness":"FRESH","line1":"1 59757U 24091E   26145.10386771  .00000536  00000+0  92782-5 0  9996","line2":"2 59757  53.1602 189.6956 0001055  73.0078 287.1056 15.69708563117516","mean_motion":15.69708563,"eccentricity":0.0001055,"inclination_deg":53.1602,"raan_deg":189.6956,"arg_perigee_deg":73.0078,"mean_anomaly_deg":287.1056,"bstar":9.2782e-6,"rev_number":11751,"period_min":91.736774197619,"perigee_km":359.02001750736,"apogee_km":360.44170762636,"semimajor_km":6737.8678625669,"source":"CELESTRAK","updated_at":"2026-05-25T13:38:19.056282Z"}}}